Location: Strawberry
(45.6646°N, 111.9596°W)
Time: 18:45:33
(UTC+00:00)

SR - Pass Details

Date: 06 October 2022
Orbit: 577 x 874 km, 66.7° (Epoch: 05 December)

Event Time Altitude Azimuth Distance (km) Brightness Sun altitude
Exits shadow 09:21:46 - 343° (NNW) 2,808 ? -41.2°
Reaches altitude 10° 09:24:15 10° 5° (N) 2,408 ? -40.9°
Maximum altitude 09:25:35 11° 19° (NNE) 2,330 ? -40.7°
Drops below altitude 10° 09:26:53 10° 33° (NNE) 2,363 ? -40.6°
Sets 09:31:30 0° 71° (ENE) 3,199 ? -40.0°
